This is the latest recevied weather packets stored in our database for station/object K3BAY-1. If no packets are shown the sender has not sent any weather packets the latest 10 day(s).
| Time | Temp. | Humidity | Pressure | Rain* | Wind** | Luminosity | Snow |
|---|---|---|---|---|---|---|---|
| 1777806393 | 6.11° C | 70% | 1012.2 hPa | 0 mm | - | 21 W/m² | - |
| 1777806090 | 6.11° C | 70% | 1012.6 hPa | 0 mm | - | 20 W/m² | - |
| 1777805786 | 6.11° C | 72% | 1012.6 hPa | 0 mm | - | 19 W/m² | - |
| 1777805484 | 6.11° C | 72% | 1012.9 hPa | 0 mm | - | 17 W/m² | - |
| 1777804880 | 6.11° C | 72% | 1012.9 hPa | 0 mm | - | 13 W/m² | - |
| 1777804577 | 6.11° C | 73% | 1013.2 hPa | 0 mm | - | 11 W/m² | - |
| 1777803668 | 5.56° C | 73% | 1013.6 hPa | 0 mm | - | 6 W/m² | - |
| 1777803364 | 5.56° C | 74% | 1012.9 hPa | 0 mm | - | 3 W/m² | - |
| 1777803061 | 6.11° C | 74% | 1011.9 hPa | 0 mm | - | 2 W/m² | - |
| 1777802759 | 5.56° C | 74% | 1012.2 hPa | 0 mm | - | 0 W/m² | - |
| 1777802154 | 5.56° C | 75% | 1012.6 hPa | 0 mm | - | 0 W/m² | - |
| 1777801852 | 6.11° C | 75% | 1012.6 hPa | 0 mm | - | 0 W/m² | - |
| 1777801549 | 5.56° C | 76% | 1012.6 hPa | 0 mm | - | 0 W/m² | - |
| 1777801245 | 5.56° C | 76% | 1012.6 hPa | 0 mm | - | 0 W/m² | - |
| 1777800937 | 5.56° C | 75% | 1013.2 hPa | 0 mm | - | 0 W/m² | - |
| 1777800633 | 6.11° C | 75% | 1013.6 hPa | 0 mm | - | 0 W/m² | - |
| 1777800329 | 5.56° C | 76% | 1013.6 hPa | 0 mm | - | 0 W/m² | - |
| 1777800026 | 6.11° C | 76% | 1013.2 hPa | 0 mm | - | 0 W/m² | - |
| 1777799721 | 6.11° C | 76% | 1011.9 hPa | 0 mm | - | 0 W/m² | - |
| 1777799419 | 6.11° C | 75% | 1011.9 hPa | 0 mm | - | 0 W/m² | - |
| 1777799114 | 6.11° C | 75% | 1011.9 hPa | 0 mm | - | 0 W/m² | - |
| 1777798810 | 6.11° C | 76% | 1012.2 hPa | 0 mm | - | 0 W/m² | - |
| 1777798506 | 6.11° C | 75% | 1012.2 hPa | 0 mm | - | 0 W/m² | - |
| 1777798204 | 6.11° C | 75% | 1012.2 hPa | 0 mm | - | 0 W/m² | - |
| 1777797900 | 6.11° C | 76% | 1012.6 hPa | 0 mm | - | 0 W/m² | - |
* Rain latest hour (hover to see other rain measurements)
** Current wind speed in m/s (hover to see current wind gust speed)